BEESAT

Satellite information

Favourite Embed

Satellite Type and Status

PAYLOADIN ORBIT

Key statistics

Satellite BEESAT at a glance.

Uptime

5766

Days in orbit

Revolutions

≈ 14.6

Per day

Orbit

SSO

Sun Synchronous Orbit

Inclination

98.4

Latest

Satellite identification and parameters

Extended collection of information and parameters for BEESAT.

Object identification

Identified? True

Debris? False

Object name: BEESAT

International designator: 2009-051C

Object number (NORAD): 35933

Object ID (CCSDS): 35933

Country: GERMANY (GER)

Current information (Y/N): Y

RCS size: SMALL

Orbital parameters

Period: 98.577 minutes

Inclination: 98.4208 deg

SMA: 7068.749 km

Apoapsis: 693.767 km

Periapsis: 687.461 km

RAAN: 84.5678 deg

Eccentricy: 0.000446

Argument of periapsis: 210.0887 deg

Mean anomaly: 150.0057 deg

Mean motion: 14.60793802 rev/day

Mean motion (dot): 0.00000659 rev/day2

B* drag term: 0.00014503 1/REarth

Two-line elements (TLE)

Creation date: July 6, 2025, 6:05 p.m.

Reference frame: TEME

Reference center: EARTH

Epoch: July 6, 2025, 12:35 p.m. UTC

TLE line 0: 0 BEESAT

TLE line 1: 1 35933U 09051C 25187.52433115 .00000659 00000-0 14503-3 0 9991

TLE line 2: 2 35933 98.4208 84.5678 0004460 210.0887 150.0057 14.60793802838708

Live tracking on map

Real-time ground track for satellite BEESAT.

In-orbit conjunctions

There are no conjunctions computed for BEESAT, at the moment. Check back to stay up to date, as we update our databases every day.

Go to all conjunctions

Associated space launch

Oceansat-2 is an earth observation and oceanography satellite operated by ISRO.

BEESAT was lifted into orbit during the mission ‘PSLV | Oceansat-2’, on board a PSLV space rocket.

The launch took place on Sept. 23, 2009, 6:21 a.m. from Satish Dhawan Space Centre First Launch Pad.

For more information about the launch, click the button.

Launch to space PSLV | Oceansat-2
PSLV | Oceansat-2

Agency: N/A

Status: Launch Successful

Launch date: Sept. 23, 2009, 6:21 a.m. UTC

Rocket: PSLV

Launch pad: Satish Dhawan Space Centre First Launch Pad

Location: Satish Dhawan Space Centre, India

...

Latest news about this satellite

There are no fresh news available about this satellite. Check back as we update our databases every day.


Newsletter sign-up

Weekly statistics, charts and insights to help you stay on top of the space industry.